Temperature
18 18 18 18 18 18 17 17 17 17 17 17 17 17 17 18 18 18 18 18 18 18 18 18 17 17 17 17 17 17 17 17 17 17 17 17 16 16 16 16 16 16 16
18 18 18 18 17 17 17 17 17 17 17 17 18 18 18 18 18 18 18 18 18 18 18 18 18 17 17 17 17 17 17 17 17 17 17 17 16 16 16 16 16 16 16
18 18 18 18 18 17 17 17 17 17 18 18 18 18 18 18 18 18 18 18 18 18 18 18 18 18 18 18 17 17 17 17 17 17 17 17 17 17 17 16 16 16 16
18 18 18 18 18 18 17 18 18 18 18 18 18 18 18 18 18 18 18 18 18 18 18 18 18 18 18 18 18 17 17 17 17 17 17 17 17 17 17 16 16 16 16
18 18 18 18 18 18 18 18 18 18 18 18 18 18 18 18 18 18 18 18 18 18 18 18 18 18 18 18 18 18 17 17 17 17 17 17 17 17 17 16 16 16 16
18 18 18 18 18 18 18 18 18 18 18 18 18 18 18 18 18 18 18 18 18 18 18 18 18 18 18 18 18 18 18 17 17 17 17 17 17 17 17 16 16 16 16
18 18 18 18 18 18 18 18 18 18 18 18 18 18 18 18 18 18 18 18 18 18 18 18 18 18 18 18 18 18 18 18 17 17 17 17 17 17 17 16 16 16 16
18 18 18 18 18 18 18 18 18 18 18 18 18 18 19 19 19 19 19 18 18 18 18 18 18 18 18 18 18 18 18 18 18 17 17 17 17 17 17 17 16 16 16
18 18 18 18 18 18 18 18 18 18 18 18 18 18 19 20 19 19 19 18 18 18 18 18 18 18 18 18 18 18 18 18 18 18 17 17 17 17 17 17 17 16 16
18 18 18 18 18 18 18 18 18 18 18 18 18 18 18 19 19 19 19 19 18 18 18 18 18 18 18 18 18 18 18 18 18 18 18 17 17 17 17 17 17 17 16
18 18 18 18 18 18 18 18 18 18 18 18 18 18 18 18 18 19 19 19 19 18 18 18 18 18 18 17 18 18 18 18 18 18 18 17 17 17 17 17 17 17 16
18 18 18 18 18 18 18 18 18 18 18 18 18 18 18 18 18 18 19 18 18 18 18 18 18 18 18 17 17 18 18 18 18 18 18 18 17 17 17 17 17 17 17
18 18 18 18 18 18 18 18 18 18 18 18 18 18 18 18 18 18 18 18 18 18 18 18 18 18 18 17 17 17 18 17 17 17 17 17 17 17 17 17 17 17 16
19 18 18 19 18 18 18 18 18 18 18 18 17 17 17 17 17 17 18 18 18 18 18 18 18 17 17 17 17 17 17 17 17 17 17 17 17 17 17 17 17 17 16
19 18 19 19 18 18 18 18 18 18 18 18 18 17 17 17 17 17 17 17 18 18 19 18 18 17 17 17 17 17 17 17 17 17 17 17 17 17 17 17 17 16 16
19 18 18 18 18 18 18 18 18 18 18 18 18 18 17 17 17 17 17 17 17 17 18 18 17 17 17 17 17 17 17 17 17 17 17 17 17 17 17 17 16 16 16
19 19 18 18 18 18 18 18 18 18 18 18 18 17 17 17 17 17 17 17 17 17 17 17 17 17 17 17 17 17 16 17 17 17 17 17 17 17 16 16 16 16 16
19 18 18 18 18 18 18 18 18 18 17 17 17 17 17 17 17 17 17 17 17 17 17 17 17 17 16 16 16 16 16 16 16 16 16 16 16 16 16 16 16 16 15
18 18 18 18 18 18 18 18 18 17 17 17 17 17 17 17 17 17 17 17 17 17 16 16 16 16 16 16 16 16 16 16 16 16 16 16 16 16 16 16 16 15 15
18 18 18 18 18 17 17 17 17 17 17 17 17 17 17 17 17 17 17 17 16 16 16 16 16 16 16 16 15 15 15 15 15 16 16 16 16 16 16 16 15 15 15
18 18 17 17 17 17 17 17 17 17 17 17 17 17 16 17 17 16 16 16 16 16 16 16 16 16 16 15 15 15 15 15 15 15 15 15 15 15 15 15 15 15 15
17 17 17 17 17 17 17 17 17 17 17 16 16 16 16 16 16 16 16 16 16 16 16 16 16 15 15 15 15 15 15 15 15 15 15 15 15 14 15 15 15 15 15
17 17 17 16 16 17 17 17 17 17 16 16 16 16 16 16 16 15 16 15 15 15 15 15 15 15 14 14 14 14 14 14 14 14 14 14 14 14 14 14 14 14 14
16 16 16 16 16 16 16 16 16 16 16 15 15 15 15 15 15 15 15 15 15 15 15 14 14 14 14 14 14 14 14 14 14 14 14 14 14 14 14 14 14 14 14
16 16 16 16 16 16 16 16 16 15 15 15 15 15 15 15 15 15 14 14 14 14 14 14 14 14 14 14 14 13 13 13 14 14 13 13 14 13 13 13 13 13 13
16 16 15 15 15 15 15 15 15 15 14 14 14 14 14 14 14 14 14 14 14 14 13 13 13 13 13 13 13 13 13 13 13 13 13 13 13 13 13 13 13 13 13
Wind_Speed
5 6 5 5 6 7 7 6 5 5 4 5 4 4 3 3 3 3 5 9 9 10 10 10 10 11 12 12 12 12 12 12 11 11 12 12 12 13 12 12 12 12 12
5 5 5 5 5 6 6 5 5 4 4 3 3 3 4 4 4 4 4 8 11 11 11 11 11 12 12 12 13 13 13 13 13 13 13 13 13 14 14 13 13 13 13
6 6 5 5 5 6 6 5 5 4 4 4 4 3 4 4 4 4 5 5 7 11 12 12 12 12 13 13 13 14 14 14 14 14 15 14 14 14 15 15 14 14 13
7 6 5 5 5 6 5 5 5 4 3 3 3 3 3 3 4 5 5 6 5 6 10 13 12 12 13 13 13 14 15 16 16 15 15 15 15 15 16 15 15 14 14
7 6 5 5 6 5 5 5 4 4 4 3 3 3 3 4 4 5 5 6 6 6 6 10 13 13 13 13 14 14 15 15 16 16 16 17 17 17 16 16 16 15 15
8 7 6 6 6 5 5 4 4 4 3 3 4 3 4 4 4 4 5 5 6 6 6 6 8 11 14 14 14 14 14 15 15 16 16 17 17 17 17 17 17 17 17
8 7 6 6 6 5 5 6 5 5 5 4 3 3 4 5 4 4 4 4 4 5 5 6 7 6 8 14 15 14 14 14 15 16 16 17 18 18 18 17 17 17 17
8 8 6 6 6 5 6 6 6 4 4 4 4 3 3 4 5 4 4 4 4 5 5 6 6 6 7 6 8 13 13 13 14 14 15 16 16 17 17 17 17 17 17
8 7 7 6 6 6 6 6 6 6 5 5 4 3 3 2 1 3 4 4 4 4 5 5 6 6 7 7 6 10 11 12 12 12 12 13 15 15 15 16 16 17 17
8 8 8 7 7 6 6 7 7 6 6 5 5 4 4 3 3 2 3 3 4 4 5 5 5 6 7 7 6 5 8 10 10 10 10 11 12 14 15 15 15 15 16
8 8 8 7 7 6 6 6 5 6 6 6 5 5 5 4 6 5 4 3 3 4 4 4 4 5 5 7 7 5 8 9 10 10 10 10 10 12 13 14 14 15 15
7 8 9 8 8 7 7 7 6 7 6 6 6 5 5 5 5 5 5 5 4 3 3 3 5 4 5 5 5 3 5 8 9 9 9 9 9 10 12 13 13 13 13
7 8 8 8 8 7 7 7 7 7 7 7 7 6 5 6 5 5 6 6 5 4 3 4 4 4 4 4 3 4 6 7 8 8 8 8 8 8 9 10 10 11 12
6 6 8 8 8 8 8 7 7 8 7 8 8 7 6 6 6 6 6 6 6 5 5 4 3 3 3 3 2 4 4 7 8 8 8 8 8 8 8 8 8 9 10
6 7 7 8 8 8 8 7 7 7 7 8 8 8 7 6 6 6 6 6 7 7 6 4 4 3 3 3 3 4 4 6 8 8 8 7 7 7 7 7 7 7 7
6 7 7 7 8 8 8 8 7 7 7 7 6 7 7 7 5 6 6 6 7 7 6 4 3 3 3 3 4 5 5 7 9 9 9 8 8 7 7 7 7 7 7
7 7 7 7 7 8 7 7 8 8 8 7 7 8 8 7 6 6 6 6 7 7 7 6 5 4 4 5 4 5 6 6 6 11 11 9 8 8 8 8 8 8 8
8 8 7 7 8 8 7 8 8 8 8 8 8 8 8 7 7 6 6 7 7 7 8 8 6 5 6 6 5 6 5 5 5 8 11 10 9 9 9 9 9 8 8
8 7 7 8 8 7 7 7 8 8 8 8 8 8 8 7 7 6 7 7 7 7 7 7 7 5 5 5 5 6 6 4 5 6 10 11 11 10 10 10 9 9 9
7 7 7 7 7 7 7 7 7 7 7 7 7 7 7 7 7 7 7 7 7 7 7 7 6 5 5 5 5 5 5 5 5 4 5 6 9 11 11 11 10 10 10
7 7 7 6 7 7 6 6 6 6 5 6 6 6 6 5 5 5 5 5 6 7 7 7 7 6 6 5 6 5 5 5 5 5 5 5 6 7 9 11 11 11 11
6 6 6 6 6 5 2 3 5 5 5 6 6 6 5 5 5 6 5 5 4 6 7 7 7 6 6 6 5 6 6 6 6 5 5 6 5 5 5 6 8 12 12
6 6 5 6 5 4 3 4 5 5 5 5 5 5 5 4 5 5 6 7 6 6 6 7 7 7 6 6 6 7 6 7 6 4 5 7 5 6 5 6 10 12 12
5 5 5 6 5 5 5 5 5 6 5 5 5 5 5 4 4 5 5 5 6 6 7 7 7 7 6 5 6 7 6 7 7 6 5 6 5 5 5 5 11 12 12
4 5 5 5 5 5 5 4 5 5 5 5 5 4 4 4 3 3 5 5 5 5 5 5 6 5 4 5 5 6 6 6 6 6 5 6 5 5 5 5 7 12 12
4 4 4 4 4 4 4 4 6 5 4 4 4 4 3 3 3 4 5 5 5 5 5 5 6 7 7 7 8 8 7 7 7 6 4 5 5 4 4 4 3 6 8
Wind_Direction
148 143 145 150 156 150 156 161 155 154 165 179 190 185 194 198 207 206 170 176 194 207 211 210 210 212 210 208 207 210 214 215 213 211 210 213 214 216 217 218 219 219 219
145 149 152 153 154 155 154 159 160 166 181 182 197 198 212 216 204 219 208 188 196 206 211 213 215 217 216 215 215 216 218 218 218 218 218 220 220 220 221 221 224 225 224
153 159 155 160 156 155 158 169 170 178 187 190 203 217 224 231 222 224 225 217 201 201 208 214 216 217 218 219 219 220 220 220 220 221 221 223 224 224 223 223 225 226 225
167 171 166 167 163 170 175 174 185 185 190 200 209 230 233 231 230 229 227 220 220 213 204 208 216 219 221 223 225 225 224 224 223 224 224 224 225 226 227 227 226 226 227
179 183 176 169 178 181 185 191 180 194 195 203 216 225 238 241 233 232 231 228 222 226 221 195 207 218 223 227 229 230 229 227 226 227 228 227 226 227 228 227 226 227 229
186 189 183 182 192 188 191 195 186 201 210 215 235 238 244 240 233 231 234 224 220 225 230 221 212 213 216 225 229 232 233 231 229 230 230 231 229 227 227 228 227 228 230
190 195 194 179 195 196 201 198 198 198 211 210 224 240 238 227 221 218 229 234 221 223 227 227 234 234 215 213 222 230 233 234 234 232 231 230 230 229 228 229 228 228 229
195 192 195 194 194 195 202 206 209 219 219 210 228 239 236 214 205 212 210 217 231 229 228 225 229 234 249 234 211 215 226 234 238 236 230 228 229 229 229 228 227 226 225
199 203 198 203 199 206 201 208 214 221 225 222 224 238 248 244 235 191 213 219 225 238 243 239 235 234 237 244 237 210 217 228 233 235 233 230 227 226 226 227 228 227 226
201 202 204 204 209 213 204 214 213 222 228 230 221 234 262 291 265 239 221 219 225 231 244 251 248 235 238 242 239 235 214 219 222 228 231 232 231 226 225 226 229 230 229
203 207 207 208 211 217 215 222 217 228 229 237 238 232 234 240 249 262 263 256 249 242 240 247 250 247 243 244 243 226 204 211 217 222 227 230 230 229 228 228 230 232 231
205 208 210 211 215 221 217 221 223 225 237 242 248 244 242 244 246 250 261 264 265 264 260 258 257 253 245 242 233 181 197 209 214 215 218 222 226 229 228 227 228 229 229
208 203 211 212 218 220 222 223 223 230 227 231 239 247 250 251 260 259 264 267 270 263 250 251 251 252 248 246 228 178 193 200 207 210 214 219 222 223 222 222 224 225 225
220 206 209 216 221 221 223 221 229 227 225 226 233 240 249 251 252 252 256 265 267 263 249 248 254 250 253 248 214 208 204 192 202 207 213 217 218 216 213 214 218 220 221
220 211 213 216 219 221 225 225 232 231 225 226 230 228 236 242 244 249 250 251 260 268 265 241 242 246 239 239 203 226 218 188 195 205 208 209 208 204 202 201 202 202 202
219 219 218 216 217 219 221 225 230 228 229 231 236 243 242 244 244 246 247 245 247 256 266 264 242 255 255 254 212 230 218 179 194 201 204 204 205 204 201 198 198 195 190
214 217 221 222 223 222 222 221 229 227 229 231 233 234 236 243 242 242 243 243 242 244 252 257 250 241 241 253 245 236 226 217 204 194 197 199 201 203 202 201 199 196 194
216 215 217 219 223 223 223 222 227 229 231 232 233 235 238 234 232 242 244 246 246 245 245 249 246 239 234 233 234 240 236 229 227 185 190 197 201 203 203 203 202 200 201
213 217 217 219 223 225 225 225 228 232 236 237 237 235 236 236 236 235 239 245 245 243 240 245 245 241 241 228 225 232 236 238 239 196 190 197 201 201 200 199 199 200 202
213 219 220 223 226 228 229 229 230 234 239 243 245 242 241 237 236 236 237 242 246 248 242 243 246 242 238 231 229 237 238 229 241 234 215 208 197 198 200 198 199 201 202
212 216 219 220 224 226 228 231 230 227 228 238 243 245 247 244 250 249 250 241 240 242 241 239 240 243 239 233 232 239 246 244 238 245 239 224 208 213 204 201 203 204 202
209 210 214 219 224 227 200 233 238 235 230 238 243 246 242 230 224 219 240 256 257 247 247 245 242 240 243 240 244 248 248 249 252 238 247 247 233 232 223 217 192 192 197
203 206 212 217 221 220 193 208 218 230 234 240 242 246 251 240 226 233 221 216 229 244 254 256 253 249 243 240 242 245 249 258 265 257 249 251 239 240 234 205 175 183 189
205 207 214 221 223 216 188 206 222 227 233 234 238 241 246 252 248 247 243 241 237 233 234 239 248 251 249 250 241 246 250 249 258 254 245 257 252 251 247 211 174 183 189
204 210 208 218 226 221 183 198 228 230 230 236 240 244 244 244 252 253 242 245 246 246 229 222 236 243 248 241 245 245 245 248 255 252 239 252 257 255 248 233 190 183 187
207 217 214 215 224 228 176 189 229 234 232 238 235 235 221 232 240 250 240 241 246 255 254 236 226 226 230 224 220 235 244 247 255 254 233 241 249 251 253 241 222 196 198
Height
1540 1542 1544 1546 1548 1550 1552 1554 1556 1558 1560 1562 1563 1565 1566 1567 1567 1568 1568 1567 1567 1568 1568 1568 1569 1570 1570 1571 1572 1572 1573 1574 1575 1575 1576 1577 1578 1579 1579 1580 1581 1582 1583
1540 1542 1544 1546 1549 1551 1552 1554 1556 1558 1560 1561 1563 1564 1565 1566 1566 1566 1567 1567 1566 1567 1567 1567 1568 1568 1569 1569 1570 1571 1572 1572 1573 1574 1574 1575 1576 1577 1578 1578 1579 1580 1581
1540 1543 1545 1547 1549 1551 1552 1554 1556 1558 1559 1561 1562 1563 1564 1565 1565 1565 1566 1566 1566 1565 1565 1566 1566 1567 1567 1568 1569 1569 1570 1571 1571 1572 1572 1573 1574 1574 1575 1576 1577 1578 1578
1541 1542 1544 1547 1549 1551 1552 1554 1556 1557 1559 1560 1561 1562 1563 1563 1563 1563 1564 1564 1565 1565 1564 1564 1564 1565 1565 1566 1567 1567 1568 1568 1569 1569 1570 1571 1571 1572 1573 1574 1574 1575 1576
1541 1543 1544 1546 1548 1550 1552 1554 1556 1557 1558 1559 1560 1561 1561 1562 1562 1562 1563 1563 1563 1563 1563 1562 1562 1563 1563 1564 1564 1565 1565 1565 1566 1567 1567 1568 1569 1569 1570 1571 1571 1572 1573
1541 1543 1544 1546 1548 1550 1552 1553 1554 1555 1556 1558 1559 1560 1560 1560 1560 1560 1561 1561 1561 1561 1562 1561 1561 1561 1561 1561 1562 1562 1562 1562 1563 1563 1564 1565 1565 1566 1567 1567 1568 1569 1569
1540 1542 1544 1545 1547 1549 1550 1552 1553 1554 1555 1556 1558 1558 1558 1558 1558 1559 1559 1560 1560 1560 1560 1559 1559 1559 1559 1558 1559 1559 1559 1560 1560 1560 1561 1561 1562 1562 1563 1564 1564 1565 1565
1540 1542 1543 1545 1546 1548 1549 1550 1551 1553 1554 1555 1556 1557 1557 1558 1557 1557 1557 1557 1558 1558 1558 1557 1557 1556 1557 1557 1556 1556 1556 1556 1557 1557 1557 1558 1558 1559 1559 1560 1560 1561 1561
1539 1541 1542 1544 1545 1546 1547 1548 1549 1551 1552 1553 1554 1555 1555 1554 1555 1555 1555 1555 1555 1555 1555 1555 1554 1554 1553 1554 1553 1553 1553 1553 1553 1554 1554 1554 1555 1555 1555 1556 1556 1557 1557
1537 1539 1540 1542 1543 1545 1545 1546 1548 1549 1550 1551 1552 1552 1553 1553 1553 1553 1553 1553 1553 1552 1552 1552 1552 1552 1551 1550 1550 1550 1550 1550 1550 1550 1550 1551 1551 1551 1552 1552 1552 1552 1553
1535 1537 1538 1540 1541 1542 1543 1544 1545 1546 1547 1548 1549 1550 1550 1551 1551 1551 1550 1551 1551 1550 1550 1549 1549 1549 1548 1547 1547 1546 1546 1547 1547 1547 1547 1547 1547 1548 1548 1548 1548 1548 1549
1533 1535 1536 1537 1538 1540 1541 1541 1542 1543 1544 1545 1546 1547 1547 1548 1548 1548 1548 1548 1548 1548 1547 1547 1546 1546 1545 1545 1544 1543 1543 1543 1544 1544 1544 1544 1544 1544 1544 1544 1544 1544 1545
1531 1532 1534 1534 1536 1537 1538 1539 1540 1541 1541 1542 1542 1543 1544 1545 1545 1545 1545 1545 1545 1545 1544 1544 1543 1543 1543 1542 1541 1540 1540 1540 1540 1541 1541 1541 1540 1540 1540 1540 1540 1540 1541
1528 1529 1530 1531 1533 1534 1535 1536 1537 1537 1537 1538 1539 1540 1540 1541 1541 1541 1542 1542 1541 1541 1541 1541 1540 1540 1539 1539 1538 1538 1537 1537 1537 1538 1537 1537 1537 1537 1536 1536 1536 1536 1537
1525 1526 1527 1528 1529 1530 1531 1532 1533 1534 1534 1535 1536 1536 1536 1537 1537 1538 1538 1538 1539 1538 1537 1537 1537 1537 1536 1536 1535 1534 1534 1534 1534 1534 1534 1534 1534 1533 1533 1533 1533 1533 1533
1521 1523 1524 1525 1526 1527 1528 1529 1529 1530 1531 1531 1532 1532 1532 1533 1534 1534 1534 1534 1534 1535 1534 1533 1533 1533 1533 1533 1532 1531 1531 1530 1530 1530 1530 1530 1530 1530 1530 1530 1529 1529 1530
1517 1519 1520 1521 1522 1523 1524 1525 1526 1527 1527 1528 1528 1528 1528 1529 1530 1530 1530 1530 1530 1530 1530 1529 1530 1529 1528 1528 1528 1528 1528 1527 1527 1527 1527 1526 1526 1526 1526 1526 1526 1526 1526
1514 1515 1516 1518 1519 1520 1520 1521 1522 1523 1523 1523 1524 1524 1524 1525 1525 1526 1526 1526 1526 1526 1526 1525 1525 1525 1525 1524 1524 1524 1525 1525 1524 1523 1523 1523 1522 1523 1523 1523 1523 1523 1523
1510 1511 1512 1513 1514 1516 1516 1517 1518 1518 1519 1519 1520 1520 1520 1521 1521 1521 1521 1522 1522 1522 1522 1522 1521 1522 1521 1521 1521 1521 1521 1521 1521 1520 1520 1519 1519 1519 1519 1519 1519 1519 1520
1506 1507 1508 1509 1510 1511 1512 1513 1514 1514 1514 1515 1515 1515 1516 1516 1516 1516 1517 1516 1517 1517 1517 1517 1518 1518 1518 1517 1517 1518 1518 1517 1517 1517 1516 1516 1515 1515 1515 1515 1515 1515 1516
1501 1503 1503 1504 1506 1507 1508 1509 1509 1510 1510 1510 1510 1510 1510 1510 1511 1511 1512 1512 1512 1512 1513 1513 1513 1513 1514 1514 1514 1514 1514 1514 1513 1513 1513 1513 1512 1511 1511 1511 1511 1511 1511
1497 1498 1499 1500 1502 1503 1503 1504 1505 1505 1505 1506 1506 1506 1506 1506 1506 1506 1507 1507 1507 1507 1507 1508 1508 1508 1508 1509 1509 1509 1510 1510 1509 1510 1509 1508 1509 1508 1507 1507 1507 1507 1507
1493 1494 1495 1496 1497 1498 1499 1500 1500 1500 1500 1501 1501 1501 1502 1502 1502 1502 1501 1501 1501 1502 1503 1503 1503 1503 1503 1504 1504 1505 1504 1504 1504 1505 1504 1504 1504 1503 1504 1503 1503 1503 1503
1489 1490 1491 1492 1493 1494 1494 1495 1496 1496 1497 1497 1497 1497 1497 1497 1497 1497 1497 1497 1496 1497 1497 1498 1498 1498 1499 1499 1499 1499 1499 1499 1499 1499 1500 1500 1499 1499 1499 1499 1498 1498 1499
1486 1486 1486 1488 1489 1490 1490 1491 1492 1493 1493 1493 1493 1493 1493 1492 1492 1492 1492 1492 1492 1492 1493 1493 1493 1493 1493 1494 1494 1495 1495 1496 1495 1495 1495 1495 1495 1495 1495 1495 1494 1494 1494
1482 1483 1484 1484 1485 1486 1486 1487 1488 1489 1489 1489 1489 1489 1488 1488 1488 1488 1488 1488 1487 1487 1488 1489 1489 1488 1489 1489 1489 1489 1490 1491 1491 1491 1490 1490 1490 1491 1491 1490 1490 1490 1490